Location: Sternwarte auf dem Internationalen Platz Vogelsang IP
(50.5721°N, 6.4398°E)
Time: 08:06:02
(UTC+01:00)

Courier 1B Rocket - All Passes

Search period start: 11 December 2025 00:00
Search period end: 21 December 2025 00:00
Orbit: 920 x 1201 km, 28.3° (Epoch: 10 December)

Date Brightness Start Highest point End Pass type
(mag) Time Alt. Az. Time Alt. Az. Time Alt. Az.
11 Dec - 01:54:18 10° S 01:54:54 10° S 01:55:29 10° S night (unlit)
12 Dec - 00:53:00 10° S 00:54:05 10° S 00:55:10 10° SSE night (unlit)
13 Dec - 01:44:28 10° SSW 01:45:11 10° S 01:45:55 10° S night (unlit)
14 Dec - 00:42:26 10° SSW 00:44:22 11° S 00:46:17 10° SSE night (unlit)
14 Dec - 23:41:23 10° SSW 23:43:30 11° S 23:45:37 10° SSE night (unlit)
15 Dec - 22:41:02 10° S 22:42:37 11° S 22:44:12 10° SSE night (unlit)
16 Dec - 00:32:41 10° SSW 00:34:37 11° S 00:36:31 10° S night (unlit)
16 Dec - 23:31:08 10° SSW 23:33:45 12° S 23:36:19 10° SSE night (unlit)
17 Dec - 22:30:11 10° SSW 22:32:51 12° S 22:35:29 10° SSE night (unlit)
18 Dec - 00:23:55 10° SSW 00:24:51 10° SSW 00:25:47 10° S night (unlit)
18 Dec - 21:29:49 10° S 21:31:56 11° S 21:34:02 10° SSE visible
18 Dec - 23:21:28 10° SSW 23:23:58 12° S 23:26:28 10° SSE night (unlit)
19 Dec - 22:20:06 10° SSW 22:23:04 12° S 22:26:00 10° SSE night (unlit)
20 Dec - 21:19:15 10° SSW 21:22:08 12° S 21:25:02 10° SSE visible
20 Dec - 23:12:30 10° SSW 23:14:10 11° SSW 23:15:51 10° S night (unlit)
